GW4420 Weather Reports


time (UTC)temp
C
wind
direction
speed
KPH
gust
KPH
rain 1hr
cm
rain 24hr
cm
rain mn
cm
humidity
%
barometer
mb
20260902040026 30 4 11.3 14.5 0.00 0.00 0.00 74 1007.7
20260902035520 30 30 11.3 30.6 0.00 0.00 0.00 73 1007.8
20260902035016 30 37 9.7 16.1 0.00 0.00 0.00 74 1007.8
20260902034514 30 13 8.0 22.5 0.00 0.00 0.00 77 1007.9
20260902034014 30 322 8.0 12.9 0.00 0.00 0.00 77 1008.0
20260902033514 30 241 6.4 17.7 0.00 0.00 0.00 78 1007.8
20260902033013 30 65 4.8 11.3 0.00 0.00 0.00 79 1008.2
20260902032508 30 334 4.8 22.5 0.00 0.00 0.00 79 1008.4
20260902032003 30 78 3.2 22.5 0.00 0.00 0.00 79 1008.3
20260902031457 30 61 4.8 12.9 0.00 0.00 0.00 78 1008.1
20260902030954 30 277 6.4 11.3 0.00 0.00 0.00 78 1008.3
20260902030453 30 332 9.7 12.9 0.00 0.00 0.00 78 1008.3
20260902025951 30 60 8.0 9.7 0.00 0.00 0.00 79 1008.5
20260902025448 29 8 9.7 22.5 0.00 0.00 0.00 79 1008.4
20260902024943 29 40 3.2 20.9 0.00 0.00 0.00 79 1008.4
20260902024438 30 28 6.4 9.7 0.00 0.00 0.00 79 1008.5
20260902023933 30 1 8.0 11.3 0.00 0.00 0.00 78 1008.5
20260902023429 30 138 9.7 16.1 0.00 0.00 0.00 78 1008.5
20260902022928 30 352 3.2 12.9 0.00 0.00 0.00 78 1008.4
20260902022423 30 327 9.7 14.5 0.00 0.00 0.00 76 1008.3
20260902021919 30 315 4.8 9.7 0.00 0.00 0.00 77 1008.6
20260902021419 30 340 6.4 17.7 0.00 0.00 0.00 76 1008.3
20260902020914 30 323 8.0 17.7 0.00 0.00 0.00 75 1008.5
20260902020411 31 359 12.9 22.5 0.00 0.00 0.00 75 1008.8
20260902015906 31 24 11.3 24.1 0.00 0.00 0.00 74 1008.5
20260902015401 31 115 3.2 9.7 0.00 0.00 0.00 76 1008.4
20260902014856 31 352 12.9 22.5 0.00 0.00 0.00 75 1008.7
20260902014353 31 58 9.7 17.7 0.00 0.00 0.00 75 1008.8
20260902013852 30 38 1.6 11.3 0.00 0.00 0.00 77 1008.4
20260902013348 30 331 6.4 14.5 0.00 0.00 0.00 78 1008.6
20260902012843 30 134 6.4 16.1 0.00 0.00 0.00 79 1008.7
20260902012339 30 339 14.5 17.7 0.00 0.00 0.00 77 1008.7
20260902011835 30 34 11.3 29.0 0.00 0.00 0.00 78 1009.0
20260902011329 30 35 6.4 17.7 0.00 0.00 0.00 78 1008.8
20260902010828 30 344 6.4 25.7 0.00 0.00 0.00 79 1008.7
20260902010323 30 310 12.9 25.7 0.00 0.00 0.00 79 1008.9
20260902005822 30 54 6.4 17.7 0.00 0.00 0.00 79 1008.9
20260902005317 30 349 6.4 16.1 0.00 0.00 0.00 79 1009.0
20260902004813 30 57 8.0 17.7 0.00 0.00 0.00 78 1008.9
20260902004308 30 30 3.2 9.7 0.00 0.00 0.00 79 1008.9
20260902003802 30 354 6.4 16.1 0.00 0.00 0.00 78 1008.7
20260902003258 30 343 17.7 22.5 0.00 0.00 0.00 79 1008.6
20260902002754 30 22 9.7 20.9 0.00 0.00 0.00 79 1008.6
20260902002253 30 34 11.3 16.1 0.00 0.00 0.00 79 1008.6
20260902001749 30 38 3.2 4.8 0.00 0.00 0.00 79 1008.6
20260902001243 30 35 9.7 12.9 0.00 0.00 0.00 80 1008.6
20260902000737 29 58 4.8 24.1 0.00 0.00 0.00 80 1008.5
20260902000233 30 36 14.5 16.1 0.00 0.00 0.00 80 1008.5
20260901235727 29 294 24.1 37.0 0.00 0.00 0.00 80 1008.6
20260901235223 29 323 8.0 16.1 0.00 0.00 0.00 82 1008.5
20260901234722 29 67 12.9 16.1 0.00 0.00 0.00 81 1008.7
20260901234221 30 15 8.0 16.1 0.00 0.00 0.00 80 1008.6
20260901233716 29 55 11.3 12.9 0.00 0.00 0.00 80 1008.7
20260901233213 29 19 9.7 12.9 0.00 0.00 0.00 80 1008.8
20260901232712 29 331 9.7 14.5 0.00 0.00 0.00 81 1008.6
20260901232208 29 86 1.6 11.3 0.00 0.00 0.00 82 1008.7
20260901231704 29 17 4.8 14.5 0.00 0.00 0.00 82 1008.4
20260901231200 29 54 4.8 20.9 0.00 0.00 0.00 82 1008.5
20260901230655 29 27 11.3 16.1 0.00 0.00 0.00 81 1008.4
20260901230150 29 56 4.8 20.9 0.00 0.00 0.00 81 1008.3
20260901225645 29 26 6.4 14.5 0.00 0.00 0.00 82 1008.5
20260901225145 28 26 0.0 4.8 0.00 0.00 0.00 83 1008.4
20260901224641 28 70 4.8 11.3 0.00 0.00 0.00 83 1008.3
20260901224137 28 48 3.2 20.9 0.00 0.00 0.00 84 1008.0
20260901223632 28 3 6.4 17.7 0.00 0.00 0.00 84 1008.0
20260901223127 28 338 6.4 9.7 0.00 0.00 0.00 86 1008.1
20260901222623 28 80 3.2 11.3 0.00 0.00 0.00 86 1007.9
20260901222119 27 48 3.2 12.9 0.00 0.00 0.00 86 1008.0
20260901221615 27 330 8.0 17.7 0.00 0.00 0.00 87 1007.9
20260901221111 27 340 6.4 14.5 0.00 0.00 0.00 87 1007.9
20260901220610 27 40 4.8 22.5 0.00 0.00 0.00 88 1008.0
20260901220110 27 37 6.4 9.7 0.00 0.00 0.00 88 1008.1
20260901215608 27 28 6.4 6.4 0.00 0.00 0.00 87 1007.8
20260901215107 27 83 3.2 6.4 0.00 0.00 0.00 86 1008.1
20260901214606 27 14 11.3 14.5 0.00 0.00 0.00 86 1008.1
20260901214101 27 41 6.4 11.3 0.00 0.00 0.00 86 1008.1
20260901213601 27 337 4.8 12.9 0.00 0.00 0.00 86 1008.3
20260901213055 27 42 6.4 12.9 0.00 0.00 0.00 86 1008.2
20260901212549 27 93 3.2 6.4 0.00 0.00 0.00 86 1008.2
20260901212046 27 51 6.4 11.3 0.00 0.00 0.00 86 1008.3
20260901211541 27 41 9.7 16.1 0.00 0.00 0.00 86 1008.2
20260901211037 27 25 6.4 16.1 0.00 0.00 0.00 86 1008.3
20260901210533 27 7 6.4 11.3 0.00 0.00 0.00 86 1008.1
20260901210029 27 18 4.8 11.3 0.00 0.00 0.00 86 1008.1
20260901205524 27 347 1.6 12.9 0.00 0.00 0.00 86 1007.8
20260901205023 27 341 8.0 16.1 0.00 0.00 0.00 86 1008.0
20260901204520 27 35 6.4 9.7 0.00 0.00 0.00 86 1008.0
20260901204014 27 44 3.2 4.8 0.00 0.00 0.00 85 1007.9
20260901203510 27 27 12.9 24.1 0.00 0.00 0.00 85 1008.0
20260901203005 27 10 8.0 11.3 0.00 0.00 0.00 85 1007.9
20260901202500 27 345 3.2 11.3 0.00 0.00 0.00 85 1007.9
20260901201955 27 28 4.8 6.4 0.00 0.00 0.00 85 1007.8
20260901201450 27 356 6.4 16.1 0.00 0.00 0.00 85 1007.9
20260901200950 27 46 3.2 14.5 0.00 0.00 0.00 85 1007.9
20260901200444 27 15 3.2 12.9 0.00 0.00 0.00 85 1007.7
20260901195943 27 36 9.7 14.5 0.00 0.00 0.00 85 1008.1
20260901195442 27 52 4.8 12.9 0.00 0.00 0.00 86 1008.1
20260901194937 27 329 8.0 16.1 0.00 0.00 0.00 86 1008.2
20260901194432 27 31 3.2 12.9 0.00 0.00 0.00 86 1008.3
20260901193928 27 330 4.8 12.9 0.00 0.00 0.00 86 1008.2
20260901193427 27 270 8.0 14.5 0.00 0.00 0.00 86 1008.3
20260901192921 27 24 8.0 14.5 0.00 0.00 0.00 86 1008.4
20260901192417 27 14 6.4 9.7 0.00 0.00 0.00 86 1008.3
20260901191913 27 5 11.3 20.9 0.00 0.00 0.00 86 1008.5
20260901191409 27 344 3.2 11.3 0.00 0.00 0.00 86 1008.4
20260901190905 27 17 6.4 9.7 0.00 0.00 0.00 86 1008.6
20260901190404 27 350 11.3 14.5 0.00 0.00 0.00 86 1008.6
20260901185903 27 309 6.4 20.9 0.00 0.00 0.00 86 1008.4
20260901185402 27 55 1.6 9.7 0.00 0.00 0.00 87 1008.5
20260901184857 27 67 4.8 11.3 0.00 0.00 0.00 87 1008.6
20260901184352 27 39 6.4 9.7 0.00 0.00 0.00 87 1008.6
20260901183848 27 28 9.7 14.5 0.00 0.00 0.00 87 1008.8
20260901183347 27 33 4.8 9.7 0.00 0.00 0.00 87 1008.9
20260901182843 27 14 1.6 4.8 0.00 0.00 0.00 86 1008.8
20260901182343 27 17 6.4 12.9 0.00 0.00 0.00 86 1008.9
20260901181838 27 358 8.0 14.5 0.00 0.00 0.00 87 1008.8
20260901181333 27 29 4.8 9.7 0.00 0.00 0.00 86 1008.9
20260901180831 27 14 6.4 11.3 0.00 0.00 0.00 86 1009.0
20260901180331 27 41 3.2 4.8 0.00 0.00 0.00 86 1009.2
20260901175830 27 49 3.2 9.7 0.00 0.00 0.00 86 1009.2
20260901175325 27 71 4.8 12.9 0.00 0.00 0.00 87 1009.2
20260901174820 27 22 3.2 11.3 0.00 0.00 0.00 86 1009.1
20260901174316 27 14 4.8 6.4 0.00 0.00 0.00 86 1009.0
20260901173812 27 18 6.4 12.9 0.00 0.00 0.00 86 1009.1
20260901173312 27 56 3.2 6.4 0.00 0.00 0.00 86 1009.2
20260901172809 27 68 4.8 12.9 0.00 0.00 0.00 86 1009.1
20260901172307 27 344 9.7 11.3 0.00 0.00 0.00 86 1009.1
20260901171805 27 28 9.7 12.9 0.00 0.00 0.00 86 1009.2
20260901171305 27 102 3.2 4.8 0.00 0.00 0.00 86 1009.2
20260901170759 27 40 4.8 11.3 0.00 0.00 0.00 86 1009.2
20260901170258 27 32 8.0 12.9 0.00 0.00 0.00 86 1009.0
20260901165757 27 57 3.2 9.7 0.00 0.00 0.00 86 1009.0
20260901165252 27 18 6.4 12.9 0.00 0.00 0.00 86 1009.3
20260901164748 27 9 6.4 12.9 0.00 0.00 0.00 86 1009.4
20260901164244 27 13 3.2 11.3 0.00 0.00 0.00 86 1009.2
20260901163739 27 187 11.3 16.1 0.00 0.00 0.00 86 1009.4
20260901163238 27 38 4.8 11.3 0.00 0.00 0.00 86 1009.4
20260901162733 27 55 4.8 6.4 0.00 0.00 0.00 87 1009.5
20260901162232 27 357 6.4 20.9 0.00 0.00 0.00 87 1009.3
20260901161732 27 44 3.2 11.3 0.00 0.00 0.00 87 1009.2
20260901161227 27 44 8.0 12.9 0.00 0.00 0.00 87 1009.1
20260901160723 27 28 3.2 14.5 0.00 0.00 0.00 86 1009.2
20260901160218 27 358 11.3 12.9 0.00 0.00 0.00 86 1009.1
20260901155716 27 59 6.4 14.5 0.00 0.00 0.00 86 1009.1
20260901155207 27 40 8.0 11.3 0.00 0.00 0.00 87 1009.1
20260901154702 27 24 14.5 17.7 0.00 0.00 0.00 87 1009.2
20260901154156 27 21 11.3 20.9 0.00 0.00 0.00 87 1009.1
20260901153652 27 325 4.8 17.7 0.00 0.00 0.00 87 1009.0
20260901153151 27 42 4.8 17.7 0.00 0.00 0.00 87 1009.1
20260901152645 27 71 8.0 14.5 0.00 0.00 0.00 87 1009.3
20260901152144 27 332 8.0 14.5 0.00 0.00 0.00 87 1009.0
20260901151640 27 27 6.4 11.3 0.00 0.00 0.00 87 1009.1
20260901151139 27 15 4.8 9.7 0.00 0.00 0.00 88 1009.1
20260901150639 27 41 3.2 14.5 0.00 0.00 0.00 88 1009.2
20260901150137 27 278 8.0 20.9 0.00 0.00 0.00 88 1009.2
20260901145636 27 348 6.4 12.9 0.00 0.53 0.53 88 1009.2
20260901145135 27 15 11.3 14.5 0.00 0.53 0.53 88 1009.1
20260901144631 27 23 9.7 16.1 0.00 0.53 0.53 88 1009.0
20260901144126 27 39 4.8 27.4 0.00 0.53 0.53 89 1009.1
20260901143621 27 12 6.4 11.3 0.00 0.53 0.53 89 1009.1
20260901143118 27 27 1.6 14.5 0.00 0.53 0.53 89 1009.2
20260901142614 27 34 9.7 16.1 0.00 0.53 0.53 90 1009.1
20260901142113 27 10 6.4 12.9 0.00 0.53 0.53 90 1009.1
20260901141608 27 58 3.2 12.9 0.00 0.53 0.53 89 1009.4
20260901141102 27 320 12.9 27.4 0.00 0.53 0.53 89 1009.4
20260901140601 27 6 14.5 29.0 0.00 0.53 0.53 90 1009.5
20260901135601 27 10 17.7 24.1 0.00 0.53 0.53 90 1009.5
20260901135056 27 30 9.7 16.1 0.00 0.53 0.53 92 1009.5
20260901134552 27 52 6.4 17.7 0.00 0.53 0.53 93 1009.6
20260901134046 27 19 9.7 16.1 0.00 0.53 0.53 93 1009.8
20260901133545 27 342 9.7 14.5 0.00 0.53 0.53 93 1009.6
20260901133044 27 51 4.8 12.9 0.00 0.53 0.53 93 1009.7
20260901132539 27 37 4.8 12.9 0.00 0.53 0.53 93 1009.3
20260901132038 27 105 1.6 17.7 0.00 0.53 0.53 93 1009.2
20260901131532 26 31 1.6 9.7 0.00 0.53 0.53 93 1009.4
20260901131028 26 30 3.2 11.3 0.18 0.53 0.53 93 1009.4
20260901130528 26 35 3.2 20.9 0.79 0.53 0.53 92 1009.5
20260901130026 26 18 4.8 6.4 0.48 0.46 0.46 91 1009.5
20260901125525 27 14 8.0 24.1 1.07 0.41 0.41 91 1009.2
20260901125020 27 22 11.3 17.7 0.89 0.38 0.38 89 1009.5
20260901124515 28 41 11.3 16.1 0.00 0.23 0.23 87 1008.9
20260901124015 28 37 6.4 11.3 0.00 0.23 0.23 86 1009.1
20260901123511 28 8 4.8 17.7 0.00 0.23 0.23 85 1009.1
20260901123010 28 27 8.0 16.1 0.00 0.23 0.23 85 1009.3
20260901122508 28 356 8.0 14.5 0.00 0.23 0.23 85 1009.1
20260901122008 28 358 3.2 16.1 0.00 0.23 0.23 86 1009.0
20260901121503 28 180 8.0 16.1 0.00 0.23 0.23 86 1008.8
20260901120958 28 83 4.8 22.5 0.00 0.23 0.23 86 1008.9
20260901120457 28 4 3.2 14.5 0.00 0.23 0.23 85 1008.7
20260901115953 28 342 6.4 16.1 0.00 0.23 0.23 85 1008.5
20260901115448 28 29 4.8 11.3 0.00 0.23 0.23 85 1008.5
20260901114945 28 14 12.9 17.7 0.00 0.23 0.23 85 1008.3
20260901114441 28 328 6.4 12.9 0.00 0.23 0.23 85 1008.4
20260901113938 28 69 6.4 16.1 0.00 0.23 0.23 85 1008.4
20260901113438 28 58 8.0 20.9 0.00 0.23 0.23 85 1008.2
20260901112933 28 63 8.0 14.5 0.00 0.23 0.23 85 1008.4
20260901112429 28 43 8.0 24.1 0.00 0.23 0.23 85 1008.2
20260901111923 28 347 9.7 16.1 0.00 0.23 0.23 85 1008.2
20260901111422 28 63 1.6 9.7 0.00 0.23 0.23 85 1008.0
20260901110920 28 23 11.3 14.5 0.00 0.23 0.23 85 1007.9
20260901110416 28 348 9.7 14.5 0.00 0.23 0.23 85 1007.9
20260901105913 28 41 8.0 12.9 0.00 0.23 0.23 85 1007.8
20260901105408 28 83 6.4 24.1 0.00 0.23 0.23 85 1007.6
20260901104904 28 357 1.6 29.0 0.00 0.23 0.23 85 1007.6
20260901104358 28 82 9.7 14.5 0.00 0.23 0.23 85 1007.6
20260901103854 28 314 6.4 14.5 0.00 0.23 0.23 85 1007.6
20260901103349 28 14 3.2 11.3 0.00 0.23 0.23 85 1007.7
20260901102848 28 41 9.7 14.5 0.00 0.23 0.23 85 1007.4
20260901102343 28 9 6.4 16.1 0.00 0.23 0.23 85 1007.2
20260901101839 28 34 8.0 16.1 0.00 0.23 0.23 85 1007.5
20260901101338 28 32 9.7 20.9 0.00 0.23 0.23 85 1007.5
20260901100832 28 24 3.2 22.5 0.00 0.23 0.23 86 1007.2
20260901100327 28 319 16.1 20.9 0.00 0.23 0.23 86 1007.3
20260901095826 28 353 6.4 14.5 0.00 0.23 0.23 86 1007.3
20260901095323 28 42 6.4 14.5 0.00 0.23 0.23 86 1007.1
20260901094818 28 72 9.7 14.5 0.00 0.23 0.23 85 1007.0
20260901094313 28 62 3.2 16.1 0.00 0.23 0.23 85 1007.1
20260901093808 28 348 9.7 25.7 0.00 0.23 0.23 85 1007.0
20260901093306 28 30 8.0 12.9 0.00 0.23 0.23 85 1007.0
20260901092803 28 51 14.5 22.5 0.00 0.23 0.23 85 1007.1
20260901092259 28 359 8.0 25.7 0.00 0.23 0.23 85 1007.1
20260901091754 28 54 6.4 14.5 0.00 0.23 0.23 85 1007.0
20260901091250 28 48 6.4 9.7 0.00 0.23 0.23 85 1006.8
20260901090749 28 3 9.7 16.1 0.00 0.23 0.23 85 1006.7
20260901090244 28 42 11.3 16.1 0.00 0.23 0.23 85 1006.9
20260901085740 28 17 3.2 14.5 0.00 0.23 0.23 85 1007.0
20260901085236 28 39 11.3 20.9 0.00 0.23 0.23 85 1007.0
20260901084732 28 27 6.4 17.7 0.00 0.23 0.23 85 1006.8
20260901084228 28 8 9.7 20.9 0.00 0.23 0.23 85 1007.0
20260901083723 28 319 9.7 14.5 0.00 0.23 0.23 85 1006.7
20260901083222 28 356 14.5 25.7 0.00 0.23 0.23 85 1006.8
20260901082721 28 295 14.5 24.1 0.00 0.23 0.23 85 1006.7
20260901082217 29 27 4.8 11.3 0.00 0.23 0.23 85 1006.5
20260901081712 29 13 11.3 20.9 0.00 0.23 0.23 85 1006.4
20260901081211 29 34 12.9 25.7 0.00 0.23 0.23 85 1006.4
20260901080707 29 39 9.7 16.1 0.00 0.23 0.23 86 1006.2
20260901080205 28 22 12.9 14.5 0.00 0.23 0.23 87 1006.2
20260901075701 28 341 16.1 22.5 0.00 0.23 0.23 87 1006.2
20260901075200 28 79 4.8 16.1 0.00 0.23 0.23 87 1006.3
20260901074659 29 339 8.0 14.5 0.00 0.23 0.23 87 1006.5
20260901074155 29 42 4.8 11.3 0.00 0.23 0.23 86 1006.5
20260901073651 29 37 11.3 14.5 0.00 0.23 0.23 85 1006.7
20260901073147 29 50 8.0 22.5 0.00 0.23 0.23 85 1006.7
20260901072642 29 99 11.3 24.1 0.00 0.23 0.23 85 1006.6
20260901072136 29 345 8.0 11.3 0.00 0.23 0.23 85 1006.7
20260901071631 29 310 4.8 9.7 0.00 0.23 0.23 86 1006.4
20260901071130 29 19 9.7 14.5 0.13 0.23 0.23 86 1006.5
20260901070624 29 25 8.0 25.7 0.13 0.23 0.23 86 1006.7
20260901070120 29 41 3.2 11.3 0.00 0.20 0.20 87 1006.4
20260901065609 29 23 9.7 14.5 0.00 0.20 0.20 87 1006.3
20260901065108 29 7 9.7 17.7 0.00 0.20 0.20 88 1006.3
20260901064606 28 41 12.9 20.9 0.00 0.20 0.20 88 1006.4
20260901064102 28 351 17.7 25.7 0.00 0.20 0.20 89 1006.8
20260901063558 28 65 6.4 17.7 0.00 0.20 0.20 90 1006.4
20260901063054 28 43 6.4 17.7 0.00 0.20 0.20 91 1006.4
20260901062550 28 29 6.4 16.1 0.00 0.20 0.20 90 1006.3
20260901062045 28 45 4.8 12.9 0.00 0.20 0.20 90 1006.7
20260901061542 28 70 4.8 6.4 0.48 0.20 0.20 88 1006.6
20260901061042 29 13 8.0 20.9 0.30 0.18 0.18 86 1006.8
20260901060536 29 2 8.0 17.7 0.00 0.13 0.13 86 1006.6
20260901060032 29 41 8.0 14.5 0.00 0.13 0.13 86 1006.7
20260901055527 29 327 12.9 16.1 0.00 0.13 0.13 87 1006.7
20260901055024 28 358 6.4 11.3 0.00 0.13 0.13 88 1006.6
20260901054521 28 26 8.0 22.5 0.00 0.13 0.13 87 1006.6
20260901054016 29 26 1.6 16.1 0.00 0.13 0.13 87 1006.8
20260901053512 28 45 8.0 12.9 0.00 0.13 0.13 87 1006.9
20260901053008 28 12 9.7 12.9 0.00 0.13 0.13 88 1006.8
20260901052503 28 32 8.0 17.7 0.00 0.13 0.13 89 1006.9
20260901052002 28 352 9.7 25.7 0.00 0.13 0.13 89 1007.2
20260901051458 28 306 8.0 17.7 0.00 0.13 0.13 90 1007.2
20260901050956 28 49 9.7 16.1 0.00 0.13 0.13 90 1007.3
20260901050453 28 31 4.8 14.5 0.00 0.13 0.13 90 1007.0
20260901045952 28 16 9.7 17.7 0.18 0.13 0.13 89 1007.2
20260901045447 28 358 3.2 6.4 0.48 0.13 0.13 87 1007.3
20260901044942 30 55 14.5 17.7 0.30 0.10 0.10 83 1007.5
20260901044438 30 324 6.4 20.9 0.00 0.05 0.05 82 1007.2
20260901043934 30 14 6.4 22.5 0.00 0.05 0.05 82 1007.4
20260901043430 29 31 9.7 24.1 0.00 0.05 0.05 83 1007.2
20260901042924 29 63 9.7 27.4 0.00 0.05 0.05 83 1007.4
20260901042424 30 132 6.4 14.5 0.00 0.05 0.05 83 1007.3
20260901041919 30 335 8.0 16.1 0.00 0.05 0.05 82 1007.7
20260901041419 30 57 4.8 16.1 0.00 0.05 0.05 81 1007.7
20260901040914 30 346 11.3 16.1 0.00 0.05 0.05 81 1007.8